TimeEST,TemperatureF,Dew PointF,Humidity,Sea Level PressureIn,VisibilityMPH,Wind Direction,Wind SpeedMPH,Gust SpeedMPH,PrecipitationIn,Events,Conditions,WindDirDegrees,DateUTC
12:15 AM,31.5,13.5,47,30.11,10.0,North,3.5,-,N/A,,Clear,10,2013-02-21 05:15:00
12:35 AM,32.2,12.9,45,30.12,10.0,Calm,Calm,-,N/A,,Clear,0,2013-02-21 05:35:00
12:55 AM,32.0,12.7,45,30.11,10.0,North,3.5,-,N/A,,Clear,10,2013-02-21 05:55:00
1:15 AM,31.1,12.2,46,30.12,10.0,Calm,Calm,-,N/A,,Clear,0,2013-02-21 06:15:00
1:35 AM,30.0,13.6,51,30.11,10.0,Calm,Calm,-,N/A,,Clear,0,2013-02-21 06:35:00
1:55 AM,30.0,14.7,53,30.12,10.0,Calm,Calm,-,N/A,,Clear,0,2013-02-21 06:55:00
2:15 AM,28.0,15.1,58,30.12,10.0,Calm,Calm,-,N/A,,Clear,0,2013-02-21 07:15:00
2:35 AM,27.9,14.7,58,30.13,10.0,Calm,Calm,-,N/A,,Clear,0,2013-02-21 07:35:00
2:55 AM,27.5,14.0,57,30.13,10.0,Calm,Calm,-,N/A,,Clear,0,2013-02-21 07:55:00
3:15 AM,26.4,16.2,65,30.13,10.0,Calm,Calm,-,N/A,,Clear,0,2013-02-21 08:15:00
3:35 AM,26.1,15.6,65,30.13,10.0,Calm,Calm,-,N/A,,Clear,0,2013-02-21 08:35:00
3:55 AM,25.3,18.0,74,30.14,10.0,Calm,Calm,-,N/A,,Clear,0,2013-02-21 08:55:00
4:15 AM,25.5,17.6,72,30.14,10.0,Calm,Calm,-,N/A,,Clear,0,2013-02-21 09:15:00
4:35 AM,25.5,18.7,75,30.14,10.0,Calm,Calm,-,N/A,,Clear,0,2013-02-21 09:35:00
4:55 AM,24.6,16.9,72,30.14,10.0,Calm,Calm,-,N/A,,Clear,0,2013-02-21 09:55:00
5:15 AM,23.9,16.0,72,30.15,10.0,Calm,Calm,-,N/A,,Clear,0,2013-02-21 10:15:00
5:35 AM,23.7,16.9,75,30.16,10.0,Calm,Calm,-,N/A,,Clear,0,2013-02-21 10:35:00
6:15 AM,22.3,18.1,84,30.17,10.0,Calm,Calm,-,N/A,,Clear,0,2013-02-21 11:15:00
6:55 AM,21.2,17.6,86,30.18,10.0,Calm,Calm,-,N/A,,Clear,0,2013-02-21 11:55:00
7:15 AM,23.0,18.5,83,30.19,10.0,Calm,Calm,-,N/A,,Clear,0,2013-02-21 12:15:00
7:35 AM,23.9,18.9,81,30.19,10.0,Calm,Calm,-,N/A,,Clear,0,2013-02-21 12:35:00
7:55 AM,25.7,20.5,81,30.19,10.0,Calm,Calm,-,N/A,,Clear,0,2013-02-21 12:55:00
8:15 AM,29.7,22.1,73,30.20,10.0,Calm,Calm,-,N/A,,Clear,0,2013-02-21 13:15:00
8:35 AM,31.8,19.8,61,30.20,10.0,Calm,Calm,-,N/A,,Clear,0,2013-02-21 13:35:00
8:55 AM,33.4,19.4,56,30.21,10.0,Calm,Calm,-,N/A,,Clear,0,2013-02-21 13:55:00
9:15 AM,35.8,15.1,43,30.21,10.0,North,4.6,-,N/A,,Clear,10,2013-02-21 14:15:00
9:35 AM,37.4,15.6,41,30.20,10.0,NNE,3.5,-,N/A,,Clear,20,2013-02-21 14:35:00
9:55 AM,38.5,15.8,40,30.20,10.0,Calm,Calm,-,N/A,,Clear,0,2013-02-21 14:55:00
10:15 AM,40.3,14.9,36,30.20,10.0,NE,4.6,-,N/A,,Clear,50,2013-02-21 15:15:00
10:35 AM,41.2,14.9,34,30.21,10.0,North,4.6,-,N/A,,Clear,350,2013-02-21 15:35:00
10:55 AM,42.1,15.4,34,30.20,10.0,Calm,Calm,-,N/A,,Clear,0,2013-02-21 15:55:00
11:15 AM,44.1,16.2,33,30.20,10.0,WNW,4.6,-,N/A,,Clear,290,2013-02-21 16:15:00
11:35 AM,45.5,16.7,32,30.19,10.0,NNW,3.5,-,N/A,,Clear,330,2013-02-21 16:35:00
11:55 AM,46.8,16.9,30,30.19,10.0,SW,3.5,-,N/A,,Clear,230,2013-02-21 16:55:00
12:15 PM,47.8,15.8,28,30.17,10.0,Calm,Calm,-,N/A,,Clear,0,2013-02-21 17:15:00
12:35 PM,48.9,16.2,27,30.16,10.0,SSW,3.5,-,N/A,,Clear,210,2013-02-21 17:35:00
12:55 PM,49.8,16.3,26,30.14,10.0,Calm,Calm,-,N/A,,Clear,0,2013-02-21 17:55:00
1:15 PM,50.5,15.3,25,30.13,10.0,North,3.5,-,N/A,,Clear,350,2013-02-21 18:15:00
1:35 PM,51.4,15.8,24,30.12,10.0,NNW,3.5,-,N/A,,Clear,340,2013-02-21 18:35:00
1:55 PM,51.3,14.2,23,30.12,10.0,Calm,Calm,-,N/A,,Clear,0,2013-02-21 18:55:00
2:15 PM,52.0,14.9,23,30.11,10.0,East,3.5,-,N/A,,Clear,100,2013-02-21 19:15:00
2:35 PM,53.6,15.6,22,30.10,10.0,ENE,3.5,-,N/A,,Clear,70,2013-02-21 19:35:00
2:55 PM,54.5,16.0,22,30.10,10.0,ESE,3.5,-,N/A,,Clear,120,2013-02-21 19:55:00
3:15 PM,54.1,15.6,22,30.10,10.0,Calm,Calm,-,N/A,,Clear,0,2013-02-21 20:15:00
3:35 PM,54.7,15.6,21,30.10,10.0,Calm,Calm,-,N/A,,Clear,0,2013-02-21 20:35:00
3:55 PM,54.5,14.7,21,30.11,10.0,North,3.5,-,N/A,,Clear,350,2013-02-21 20:55:00
4:15 PM,53.8,14.2,21,30.11,10.0,Calm,Calm,-,N/A,,Clear,0,2013-02-21 21:15:00
4:35 PM,53.1,14.4,22,30.12,10.0,Calm,Calm,-,N/A,,Clear,0,2013-02-21 21:35:00
4:55 PM,53.1,17.8,25,30.12,10.0,SSE,3.5,-,N/A,,Clear,160,2013-02-21 21:55:00
5:15 PM,52.2,17.4,25,30.12,10.0,Calm,Calm,-,N/A,,Clear,0,2013-02-21 22:15:00
5:35 PM,51.3,20.7,30,30.11,10.0,Calm,Calm,-,N/A,,Clear,0,2013-02-21 22:35:00
5:55 PM,49.6,20.8,32,30.12,10.0,Calm,Calm,-,N/A,,Clear,0,2013-02-21 22:55:00
6:15 PM,48.6,20.8,34,30.12,10.0,Calm,Calm,-,N/A,,Clear,0,2013-02-21 23:15:00
6:35 PM,47.3,19.0,33,30.14,10.0,Calm,Calm,-,N/A,,Clear,0,2013-02-21 23:35:00
6:55 PM,46.6,18.9,33,30.14,10.0,Calm,Calm,-,N/A,,Clear,0,2013-02-21 23:55:00
7:15 PM,46.0,19.8,35,30.14,10.0,NE,3.5,-,N/A,,Clear,50,2013-02-22 00:15:00
7:35 PM,44.8,21.6,40,30.15,10.0,Calm,Calm,-,N/A,,Clear,0,2013-02-22 00:35:00
7:55 PM,44.8,22.1,41,30.15,10.0,Calm,Calm,-,N/A,,Clear,0,2013-02-22 00:55:00
8:15 PM,45.0,22.8,42,30.14,10.0,ENE,5.8,-,N/A,,Clear,60,2013-02-22 01:15:00
8:35 PM,46.8,20.5,35,30.14,10.0,ENE,10.4,-,N/A,,Clear,70,2013-02-22 01:35:00
8:55 PM,46.6,19.9,35,30.16,10.0,East,6.9,-,N/A,,Clear,80,2013-02-22 01:55:00
9:15 PM,46.2,20.1,35,30.17,10.0,NE,5.8,-,N/A,,Clear,50,2013-02-22 02:15:00
9:35 PM,45.9,19.8,35,30.18,10.0,ENE,4.6,-,N/A,,Clear,60,2013-02-22 02:35:00
9:55 PM,45.7,19.9,36,30.18,10.0,ENE,5.8,-,N/A,,Clear,70,2013-02-22 02:55:00
10:15 PM,45.5,19.9,36,30.17,10.0,ENE,6.9,-,N/A,,Clear,60,2013-02-22 03:15:00
10:35 PM,46.4,19.4,34,30.21,10.0,East,3.5,-,N/A,,Clear,100,2013-02-22 03:35:00
10:55 PM,45.7,19.6,35,30.22,10.0,Calm,Calm,-,N/A,,Light Drizzle,0,2013-02-22 03:55:00
11:15 PM,44.6,22.3,41,30.22,10.0,ENE,5.8,-,N/A,,Light Drizzle,60,2013-02-22 04:15:00
11:35 PM,43.9,22.6,43,30.23,10.0,Calm,Calm,-,N/A,Rain,Light Rain,0,2013-02-22 04:35:00
11:55 PM,41.9,26.8,55,30.25,10.0,Calm,Calm,-,N/A,Rain,Light Rain,0,2013-02-22 04:55:00